Pima, AZ (85543)

11:05 PM MST on July 27, 2017 (GMT -0700)
Pima | | Change Station

Elev 2848 ft 32.89 °N, 109.83 °W | Updated 25 seconds ago

Partly Cloudy
Partly Cloudy
72.0 °F
Feels Like 72.0 °F
N
7.8
Wind Variable Wind from NE

Today
High -- | Low -- °F
--% Chance of Precip.
Yesterday
High -- | Low -- °F
Precip. -- in
Pressure 29.92 in
Visibility 10.0 miles
Clouds Few 10000 ft
Dew Point 68 °F
Humidity 88%
Rainfall 0.19 in
Snow Depth Not available.
5:29 AM 7:21 PM
Waxing Crescent, 27% visible
METAR KSAD 280551Z AUTO 14005KT 10SM FEW100 22/20 A3008 RMK AO2 SLP132 60020 T02170200 10294 20217 57000
Pressure 29.92 in
Visibility 10.0 miles
Clouds Few 10000 ft
Dew Point 68 °F
Humidity 88%
Rainfall 0.19 in
Snow Depth Not available.
5:29 AM 7:21 PM
Waxing Crescent, 27% visible
METAR KSAD 280551Z AUTO 14005KT 10SM FEW100 22/20 A3008 RMK AO2 SLP132 60020 T02170200 10294 20217 57000

Get Severe Weather Alerts

Thanks for signing up!

Be on the lookout for a verification email in your inbox.

You'll start receiving the daily forecast at 6 AM.

×

10-Day Weather Forecast

Almanac

Astronomy

Jul. 27, 2017 Rise Set
Actual Time
Civil Twilight
Nautical Twilight
Astronomical Twilight
Moon
Length of Visible Light
Length of Day
Tomorrow will be .
, % of the Moon is Illuminated

Today's Extremes

State Highs State Lows

Community

WunderPhotos

Category 6

Welcome to Category 6. This is the collective home for Weather Underground's featured writeups by Dr. Jeff Masters (right), Bob Henson (left), Chris Burt, and other regular contributors.

Nearby

Air Quality

  Air Quality AQ Index Pollutant
Not available.

Snow Depth

Station Depth Elevation

Earthquake Activity

City Distance Mag. Time & Date
Minimum magnitude displayed is 2.5.

Coastal Water Temperatures

Place Temperature

Stations

Nearby Weather Stations

Station Location Temp. Windchill Dew Point Humidity Wind Precip. Elev Updated Type
                   

Watches & Warnings

There are currently no watches in effect.